Lexington Weather

Lexington, Massachusetts, USA

46°F
5/12/2021 3:07am 
  • Lexington Conditions: Clear
  • Temperature: 45.5°F / 7.5°CColder 1.4°F than last hour.
  • Dew Point: 32.0°FIncreased 1.3°Fsince last hour.
  • Relative Humidity: 59%Increased 6.0% since last hour.
  • Wind: Wind from WSW WSW Calm, 10-min avg: 1 mph, gust: 4 mph
  • Barometer: 29.92 in Steady
  • Visibility: 10 miles
  • Rain Today: 0.00 in
  •   

Regional Weather Roundup
for Boston / Norton, MA

        
000
ASUS41 KBOX 111204
RWRBOX

REGIONAL WEATHER ROUNDUP
NATIONAL WEATHER SERVICE BOSTON/NORTON MA
800 AM EDT TUE MAY 11 2021

NOTE:  "FAIR" INDICATES FEW OR NO CLOUDS BELOW 12,000 FEET WITH NO 
SIGNIFICANT WEATHER AND/OR OBSTRUCTIONS TO VISIBILITY.

MAZALL-111300-
EASTERN MASSACHUSETTS
  
CITY           SKY/WX    TMP DP  RH WIND       PRES   REMARKS
BOSTON         PTSUNNY   56  35  45 W10G24    29.94S                  
6HR MIN TEMP:  53; 6HR MAX TEMP:  57;                                

BEVERLY        PTSUNNY   54  36  50 W9G21     29.93R                  
LAWRENCE       MOSUNNY   53  36  52 W14G22    29.94F                  
BEDFORD        PTSUNNY   54  36  50 W17G24    29.93F                  
BLUE HILL        N/A     50  36  58 W10       29.93S                  
NORWOOD        PTSUNNY   55  36  48 W9G17     29.95S                  
MARSHFIELD     PTSUNNY   54  39  58 VRB6      29.95R                  
PLYMOUTH       PTSUNNY   52  38  58 W9        29.95R                  
TAUNTON        PTSUNNY   54  38  54 W6        29.96S                  
NEW BEDFORD    PTSUNNY   52  37  56 W7        29.97R                  
$$

MAZALL-111300-
CAPE COD AND THE ISLANDS
  
CITY           SKY/WX    TMP DP  RH WIND       PRES   REMARKS
FALMOUTH       SUNNY     52  37  58 NW13      29.97R                  
HYANNIS        PTSUNNY   54  37  52 NW9       29.94R                  
CHATHAM        PTSUNNY   53  40  61 NW7G17    29.96R                  
PROVINCETOWN   PTSUNNY   52  45  77 W10       29.95R                  
NANTUCKET      PTSUNNY   54  43  66 NW12      29.96R                  
MARTHAS VNYRD  PTSUNNY   54  38  54 W10       29.98R                  
$$
 
MAZALL-111300-
CENTRAL AND WESTERN MASSACHUSETTS
  
CITY           SKY/WX    TMP DP  RH WIND       PRES   REMARKS
WORCESTER      MOSUNNY   49  34  56 W12       29.95S                  
6HR MIN TEMP:  46; 6HR MAX TEMP:  50;                                

FITCHBURG      MOSUNNY   51  33  50 NW16G22   29.96R                  
ORANGE         MOSUNNY   50  34  54 NW10      29.98S                  
SPRINGFIELD    MOSUNNY   52  30  43 W14       29.98S                  
WESTFIELD      PTSUNNY   51  34  52 NW9       29.99F                  
NORTH ADAMS    SUNNY     48  32  53 W9        30.00R                  
PITTSFIELD     SUNNY     45  32  60 NW15G23   29.98S                  
$$
 
RIZALL-111300-
RHODE ISLAND
  
CITY           SKY/WX    TMP DP  RH WIND       PRES   REMARKS
PROVIDENCE     PTSUNNY   54  36  50 NW15G22   29.98R                  
6HR MIN TEMP:  49; 6HR MAX TEMP:  54;                                

NEWPORT        PTSUNNY   51  38  60 NW9       29.98R                  
BLOCK ISLAND   PTSUNNY   52  40  63 NW8       30.01R                  
SMITHFIELD     PTSUNNY   51  37  58 W16       29.97S                  
WESTERLY       PTSUNNY   50  35  56 NW9       29.99S                  
$$
 
CTZALL-111300-
CONNECTICUT
  
CITY           SKY/WX    TMP DP  RH WIND       PRES   REMARKS
BRADLEY INTL   MOSUNNY   52  33  48 NW14G22   30.00S                  
6HR MIN TEMP:  48; 6HR MAX TEMP:  52;                                

HARTFORD       MOSUNNY   53  33  46 NW12G21   30.01S                  
BRIDGEPORT     MOSUNNY   54  37  52 NW9       30.03R                  
DANBURY        MOSUNNY   52  37  56 W5        30.04R                  
GROTON         PTSUNNY   54  34  46 NW16G23   30.00R                  
NEW HAVEN      MOSUNNY   54  39  57 NW6       30.02R                  
CHESTER        FAIR      54  34  47 VRB5G15   30.01R                  
MERIDEN        MOSUNNY   52  37  56 W8        30.02R                  
WILLIMANTIC    MOSUNNY   52  34  50 VRB7G17   30.00R                  
OXFORD         MOSUNNY   49  37  63 NW6       30.02R                  
$$

MEZ002-015-021-024-NHZ003-005-008-011-012-014-VTZ005-008-111300-
NORTHERN NEW ENGLAND
  
CITY           SKY/WX    TMP DP  RH WIND       PRES   REMARKS
PORTLAND ME    MOSUNNY   52  45  77 W9        29.87S                  
6HR MIN TEMP:  49; 6HR MAX TEMP:  53; 6HR PCP:  0.01;                

BANGOR ME      CLOUDY    50  46  86 W3        29.85S                  
CONCORD NH     MOSUNNY   51  35  54 W9        29.92S                  
MANCHESTER NH  MOSUNNY   53  33  46 W12       29.92S                  
NASHUA NH      MOSUNNY   52  34  50 W13G20    29.94S                  
PORTSMOUTH NH  MOSUNNY   54  33  45 W9        29.91S                  
JAFFREY NH     MOSUNNY   48  32  53 W8        29.95S                  
KEENE NH       MOSUNNY   49  33  54 SW9       29.96S                  
BURLINGTON VT  PTSUNNY   47  37  68 S5        29.94R                  
MT. WASHINGTON FOG       25  25 100 W18         N/A  VSB 1/16WCI  11  
$$

NYZ052-076-111300-
EASTERN NEW YORK
  
CITY           SKY/WX    TMP DP  RH WIND       PRES   REMARKS
ALBANY         MOSUNNY   45  33  63 W12       30.03S                  
6HR MIN TEMP:  38; 6HR MAX TEMP:  45;                                

NEW YORK CITY  PTSUNNY   54  35  48 NW9       30.06R                  
6HR MIN TEMP:  52; 6HR MAX TEMP:  54;                                

$$
 
ANZALL-111300-
MARINE OBSERVATIONS
  
STATION/POSITION TIME  TEMP    WIND        PRES    VSBY  WAVE
                       AIR SEA DIR/SP/G                  HT/PER
                 (UTC) (F)     (DEG/KT/KT) (MB)    (MI)  (FT/S)
BOSTON BUOY      1140   51 48  280/ 14/ 17 1013.5S
BUZZARDS BAY     1100          280/ 12/ 13 1016.1R
NANTUCKET SOUND  1140                        N/A
MASS BAY-STELLWA 1104   51     270/ 10/ 12 1012.4R  1 7/8  2/ 3
ISLE OF SHOALS   1100   51     270/ 16/ 18 1012.1R
S OF BLOCK IS    1126      50                N/A           5/ 9
$$

......................KEY.........................
  SKY/WX - SKY CONDITION/PRESENT WEATHER
  TMP    - TEMPERATURE IN FAHRENHEIT
  DWPT   - DEWPOINT IN FAHRENHEIT
  RH     - RELATIVE HUMIDITY IN PERCENT
  WIND   - DIRECTION AND SPEED IN MPH
  PRES   - MEAN SEA LEVEL PRESSURE IN INCHES OF HG
  WCI    - WIND CHILL INDEX
  VSB    - VISIBILITY IN MILES
  HX     - HEAT INDEX
  TC     - TEMPERATURE IN CELSIUS
  VRB    - VARIABLE WIND DIRECTION
  N/A    - NOT AVAILABLE
  
      

Other recent Regional Weather Roundups

Wed May 12, 2:04am

Wed May 12, 1:04am

Wed May 12, 12:05am

Tue May 11, 11:05pm

Tue May 11, 10:04pm

Tue May 11, 9:05pm

Tue May 11, 8:05pm

Tue May 11, 7:04pm

Tue May 11, 6:04pm

Tue May 11, 5:04pm

Tue May 11, 4:05pm

Tue May 11, 3:04pm

Tue May 11, 2:05pm

Tue May 11, 1:04pm

Tue May 11, 12:05pm

Tue May 11, 11:05am

Tue May 11, 10:04am

Tue May 11, 9:04am

Tue May 11, 7:05am

Tue May 11, 6:04am

Tue May 11, 5:04am

Tue May 11, 4:04am

Tue May 11, 3:04am

Tue May 11, 2:04am

Tue May 11, 1:04am

Tue May 11, 12:04am

Mon May 10, 11:04pm

Mon May 10, 10:04pm

Mon May 10, 9:05pm

Mon May 10, 8:04pm

Mon May 10, 7:05pm

Mon May 10, 6:04pm

Mon May 10, 5:04pm

Mon May 10, 4:04pm

Mon May 10, 3:04pm

Mon May 10, 2:04pm

Mon May 10, 1:04pm

Mon May 10, 12:04pm

Mon May 10, 11:05am

Mon May 10, 10:04am

Mon May 10, 9:04am

Mon May 10, 8:04am

Mon May 10, 7:04am

Mon May 10, 6:04am

Mon May 10, 5:05am

Mon May 10, 4:04am

Mon May 10, 3:04am

Mon May 10, 2:04am

Mon May 10, 1:04am

Mon May 10, 12:04am

Sun May 9, 11:04pm

Sun May 9, 10:04pm

Sun May 9, 9:04pm

Sun May 9, 8:04pm

Sun May 9, 7:05pm

Sun May 9, 6:04pm

Sun May 9, 5:04pm

Sun May 9, 4:04pm

Sun May 9, 3:04pm

Sun May 9, 2:04pm

Sun May 9, 1:05pm

Sun May 9, 12:04pm

Sun May 9, 11:05am

Sun May 9, 10:04am

Sun May 9, 9:04am

Sun May 9, 8:04am

Sun May 9, 7:04am

Sun May 9, 6:04am

Sun May 9, 5:04am

Sun May 9, 4:04am

Sun May 9, 3:04am

Sun May 9, 2:04am

Sun May 9, 1:05am

Sun May 9, 12:04am

Sat May 8, 11:05pm

Sat May 8, 10:04pm

Sat May 8, 9:05pm

Sat May 8, 8:04pm

Sat May 8, 7:04pm

Sat May 8, 6:04pm

Sat May 8, 5:05pm

Sat May 8, 4:04pm

Sat May 8, 3:05pm

Sat May 8, 2:05pm

Sat May 8, 1:05pm

Sat May 8, 12:04pm

Sat May 8, 11:05am

Sat May 8, 10:04am

Sat May 8, 9:04am

Sat May 8, 8:04am

Sat May 8, 7:04am

Sat May 8, 6:04am

Sat May 8, 5:04am

Sat May 8, 4:04am

Sat May 8, 3:04am

Sat May 8, 2:04am

Sat May 8, 1:05am

Sat May 8, 12:04am

Fri May 7, 11:04pm

Fri May 7, 10:05pm

Fri May 7, 9:04pm

Fri May 7, 8:04pm

Fri May 7, 7:05pm

Fri May 7, 6:04pm

Fri May 7, 5:05pm

Fri May 7, 4:04pm

Fri May 7, 3:04pm

Fri May 7, 2:05pm

Fri May 7, 1:04pm

Fri May 7, 12:04pm

Fri May 7, 11:05am

Fri May 7, 10:04am

Fri May 7, 9:04am

Fri May 7, 8:05am

Fri May 7, 7:04am

Fri May 7, 6:04am

Fri May 7, 5:04am

Fri May 7, 4:04am

Fri May 7, 3:04am

Fri May 7, 2:05am

Fri May 7, 1:04am

Fri May 7, 12:05am

Thu May 6, 11:04pm

Thu May 6, 10:04pm

Thu May 6, 9:05pm

Thu May 6, 8:04pm

Thu May 6, 7:04pm

Thu May 6, 6:04pm

Thu May 6, 5:05pm

Thu May 6, 4:04pm

Thu May 6, 3:04pm

Thu May 6, 2:05pm

Thu May 6, 1:04pm

Thu May 6, 12:04pm

Thu May 6, 11:04am

Thu May 6, 10:04am

Thu May 6, 9:04am

Thu May 6, 8:04am

Thu May 6, 7:04am

Thu May 6, 6:04am

Thu May 6, 5:04am

Thu May 6, 4:04am

Thu May 6, 3:04am

Thu May 6, 2:05am

Thu May 6, 1:04am

Thu May 6, 12:05am

Wed May 5, 11:04pm

Wed May 5, 10:04pm

Wed May 5, 9:05pm

Wed May 5, 8:04pm

Wed May 5, 7:05pm

Wed May 5, 6:04pm

Wed May 5, 5:04pm

Wed May 5, 4:04pm

Wed May 5, 3:04pm

Wed May 5, 2:05pm

Wed May 5, 1:05pm

Wed May 5, 12:04pm

Wed May 5, 11:05am

Wed May 5, 10:04am

Wed May 5, 9:04am

Wed May 5, 8:04am

Wed May 5, 7:04am

Wed May 5, 6:05am

Wed May 5, 5:04am

Wed May 5, 4:04am

Wed May 5, 3:04am

Meta data:

ID: b25623fb-997b-4a4b-a65e-1e3d29f012fa
Link: https://api.weather.gov/products/b25623fb-997b-4a4b-a65e-1e3d29f012fa